JST409 YBCG-YSSY

Flight info

Callsign JST409
Flight time N/A
Altitude 36000
Route GOMOL Q16 APAGI H91 IGDAM/N0450F370 H652 BOREE
Aircraft A321/M-SDE3FGHIRWY/LB1

Departure

Time N/A
Airport Gold Coast Airport (YBCG)

Arrival

Time 2026-05-08 04:47
Airport Sydney Kingsford Smith International Airport (YSSY)
Time Latitude Longitude Altitude Speed Heading
2026-05-08 04:02 -30.92321 151.63137 36152 ft 418 kts 212°
2026-05-08 04:03 -30.97709 151.60606 36145 ft 417 kts 212°
2026-05-08 04:03 -31.05781 151.56798 36166 ft 417 kts 212°
2026-05-08 04:04 -31.11168 151.54252 36175 ft 418 kts 212°
2026-05-08 04:04 -31.16525 151.51733 36177 ft 417 kts 211°
2026-05-08 04:05 -31.21911 151.49191 36174 ft 418 kts 211°
2026-05-08 04:05 -31.27303 151.46633 36166 ft 418 kts 211°
2026-05-08 04:06 -31.32695 151.44070 36184 ft 418 kts 211°
2026-05-08 04:06 -31.38055 151.41521 36180 ft 418 kts 211°
2026-05-08 04:07 -31.43482 151.39017 36173 ft 420 kts 210°
2026-05-08 04:07 -31.48962 151.36606 36171 ft 421 kts 210°
2026-05-08 04:08 -31.54443 151.34189 36169 ft 421 kts 210°
2026-05-08 04:08 -31.59916 151.31742 36181 ft 421 kts 209°
2026-05-08 04:09 -31.65353 151.29296 36165 ft 422 kts 209°
2026-05-08 04:09 -31.70839 151.26838 36166 ft 422 kts 209°
2026-05-08 04:10 -31.76323 151.24374 36165 ft 422 kts 209°
2026-05-08 04:10 -31.81818 151.21908 36184 ft 423 kts 208°
2026-05-08 04:11 -31.87274 151.19459 36169 ft 422 kts 209°
2026-05-08 04:11 -31.92751 151.16979 36167 ft 422 kts 209°
2026-05-08 04:12 -31.98228 151.14504 36162 ft 422 kts 209°
2026-05-08 04:12 -32.03715 151.12050 36179 ft 422 kts 208°
2026-05-08 04:13 -32.09204 151.09604 36164 ft 421 kts 208°
2026-05-08 04:13 -32.14652 151.07156 36151 ft 422 kts 209°
2026-05-08 04:14 -32.20144 151.04676 35444 ft 427 kts 208°
2026-05-08 04:14 -32.22948 151.03404 34425 ft 435 kts 207°
2026-05-08 04:14 -32.25785 151.02120 33522 ft 438 kts 206°
2026-05-08 04:15 -32.28626 151.00840 32762 ft 436 kts 206°
2026-05-08 04:15 -32.31432 150.99583 32334 ft 427 kts 206°
2026-05-08 04:15 -32.34188 150.98346 31823 ft 421 kts 206°
2026-05-08 04:15 -32.36871 150.97140 31329 ft 416 kts 206°
2026-05-08 04:16 -32.39555 150.95931 30826 ft 410 kts 206°
2026-05-08 04:16 -32.42208 150.94733 30338 ft 405 kts 205°
2026-05-08 04:16 -32.44823 150.93548 29800 ft 400 kts 205°
2026-05-08 04:16 -32.47417 150.92432 29311 ft 395 kts 201°
2026-05-08 04:17 -32.50115 150.91807 28783 ft 396 kts 191°
2026-05-08 04:17 -32.52871 150.91799 28269 ft 398 kts 180°
2026-05-08 04:17 -32.55607 150.92268 27756 ft 395 kts 177°
2026-05-08 04:17 -32.58310 150.92760 27249 ft 390 kts 177°
2026-05-08 04:18 -32.60978 150.93235 26760 ft 385 kts 177°
2026-05-08 04:18 -32.63613 150.93698 26273 ft 380 kts 177°
2026-05-08 04:18 -32.66215 150.94156 25833 ft 376 kts 177°
2026-05-08 04:18 -32.68793 150.94612 25347 ft 373 kts 177°
2026-05-08 04:19 -32.71308 150.95056 24912 ft 368 kts 177°
2026-05-08 04:19 -32.73823 150.95501 24476 ft 364 kts 177°
2026-05-08 04:19 -32.76307 150.95939 24085 ft 359 kts 177°
2026-05-08 04:19 -32.78761 150.96375 23681 ft 354 kts 177°
2026-05-08 04:20 -32.81181 150.96806 23241 ft 349 kts 177°
2026-05-08 04:20 -32.83561 150.97234 22848 ft 343 kts 177°
2026-05-08 04:20 -32.85901 150.97653 22463 ft 338 kts 178°
2026-05-08 04:20 -32.88223 150.98067 22069 ft 336 kts 178°
2026-05-08 04:21 -32.90535 150.98476 21669 ft 335 kts 178°
2026-05-08 04:21 -32.92837 150.98886 21280 ft 334 kts 178°
2026-05-08 04:21 -32.95099 150.99294 20874 ft 332 kts 178°
2026-05-08 04:21 -32.97380 150.99703 20471 ft 331 kts 178°
2026-05-08 04:22 -32.99651 151.00108 20054 ft 329 kts 178°
2026-05-08 04:22 -33.01908 151.00507 19645 ft 327 kts 178°
2026-05-08 04:22 -33.04153 151.00903 19234 ft 325 kts 178°
2026-05-08 04:22 -33.06389 151.01298 18820 ft 324 kts 178°
2026-05-08 04:23 -33.08611 151.01691 18401 ft 322 kts 178°
2026-05-08 04:23 -33.10820 151.02084 17946 ft 320 kts 178°
2026-05-08 04:23 -33.13013 151.02480 17532 ft 317 kts 178°
2026-05-08 04:23 -33.15187 151.02871 17128 ft 315 kts 178°
2026-05-08 04:24 -33.17310 151.03253 16722 ft 311 kts 178°
2026-05-08 04:24 -33.19434 151.03632 16318 ft 307 kts 178°
2026-05-08 04:24 -33.21530 151.04008 15919 ft 303 kts 178°
2026-05-08 04:24 -33.23598 151.04383 15544 ft 298 kts 178°
2026-05-08 04:25 -33.25637 151.04760 15130 ft 295 kts 178°
2026-05-08 04:25 -33.27651 151.05145 14752 ft 291 kts 178°
2026-05-08 04:25 -33.29637 151.05530 14373 ft 287 kts 178°
2026-05-08 04:25 -33.31600 151.05911 13995 ft 284 kts 178°
2026-05-08 04:26 -33.33520 151.06282 13603 ft 282 kts 178°
2026-05-08 04:26 -33.35451 151.06652 13222 ft 280 kts 178°
2026-05-08 04:26 -33.37372 151.07021 12853 ft 280 kts 178°
2026-05-08 04:26 -33.39292 151.07388 12482 ft 279 kts 178°
2026-05-08 04:27 -33.41208 151.07758 12117 ft 278 kts 178°
2026-05-08 04:27 -33.43116 151.08128 11744 ft 278 kts 177°
2026-05-08 04:27 -33.45021 151.08494 11381 ft 277 kts 177°
2026-05-08 04:27 -33.46921 151.08856 11016 ft 276 kts 177°
2026-05-08 04:28 -33.48812 151.09215 10660 ft 274 kts 177°
2026-05-08 04:28 -33.50697 151.09573 10404 ft 271 kts 176°
2026-05-08 04:28 -33.52532 151.09926 10281 ft 271 kts 176°
2026-05-08 04:28 -33.54350 151.10583 10135 ft 280 kts 156°
2026-05-08 04:29 -33.55907 151.12056 9986 ft 289 kts 143°
2026-05-08 04:29 -33.57372 151.13708 9847 ft 289 kts 143°
2026-05-08 04:29 -33.58827 151.15371 9673 ft 289 kts 143°
2026-05-08 04:29 -33.60274 151.17025 9522 ft 286 kts 143°
2026-05-08 04:30 -33.61710 151.18675 9365 ft 286 kts 142°
2026-05-08 04:30 -33.63150 151.20323 9207 ft 285 kts 143°
2026-05-08 04:30 -33.64585 151.21959 9046 ft 284 kts 143°
2026-05-08 04:30 -33.65993 151.23569 8875 ft 283 kts 142°
2026-05-08 04:31 -33.67419 151.25199 8651 ft 283 kts 142°
2026-05-08 04:31 -33.68843 151.26805 8351 ft 279 kts 142°
2026-05-08 04:31 -33.70258 151.28385 8054 ft 276 kts 142°
2026-05-08 04:31 -33.71663 151.29948 7757 ft 274 kts 143°
2026-05-08 04:32 -33.73055 151.31497 7448 ft 272 kts 142°
2026-05-08 04:32 -33.74444 151.33030 7154 ft 271 kts 143°
2026-05-08 04:32 -33.75823 151.34553 6865 ft 266 kts 146°
2026-05-08 04:32 -33.77344 151.35688 6481 ft 254 kts 161°
2026-05-08 04:33 -33.78935 151.36522 6070 ft 252 kts 162°
2026-05-08 04:33 -33.80545 151.37335 5668 ft 250 kts 163°
2026-05-08 04:33 -33.82148 151.38139 5259 ft 249 kts 163°
2026-05-08 04:33 -33.83742 151.38942 4835 ft 248 kts 163°
2026-05-08 04:34 -33.85337 151.39751 4366 ft 249 kts 163°
2026-05-08 04:34 -33.86957 151.40472 3908 ft 245 kts 174°
2026-05-08 04:34 -33.88593 151.40276 3552 ft 234 kts 208°
2026-05-08 04:34 -33.89705 151.38915 3336 ft 234 kts 244°
2026-05-08 04:35 -33.89877 151.36955 3053 ft 243 kts 272°
2026-05-08 04:35 -33.89798 151.34955 2747 ft 234 kts 254°
2026-05-08 04:35 -33.90334 151.33160 2436 ft 231 kts 249°
2026-05-08 04:35 -33.90836 151.31315 2130 ft 234 kts 252°
2026-05-08 04:36 -33.91284 151.29439 1819 ft 234 kts 253°
2026-05-08 04:36 -33.91728 151.27553 1504 ft 234 kts 252°
2026-05-08 04:36 -33.92168 151.25698 1387 ft 224 kts 253°
2026-05-08 04:36 -33.92618 151.23882 1949 ft 229 kts 251°
2026-05-08 04:37 -33.93039 151.22011 2445 ft 235 kts 262°
2026-05-08 04:37 -33.92785 151.20035 2888 ft 248 kts 290°
2026-05-08 04:37 -33.91712 151.18370 2994 ft 260 kts 317°
2026-05-08 04:37 -33.90026 151.17486 3008 ft 273 kts 347°
2026-05-08 04:38 -33.88141 151.17644 3003 ft 282 kts 16°
2026-05-08 04:38 -33.86458 151.18852 3008 ft 286 kts 45°
2026-05-08 04:38 -33.85300 151.20789 3012 ft 287 kts 61°
2026-05-08 04:38 -33.84316 151.22881 3009 ft 288 kts 63°
2026-05-08 04:39 -33.83341 151.24985 3012 ft 287 kts 63°
2026-05-08 04:39 -33.82381 151.27086 3006 ft 286 kts 63°
2026-05-08 04:39 -33.81423 151.29178 3014 ft 286 kts 63°
2026-05-08 04:39 -33.80791 151.30569 3013 ft 286 kts 63°
2026-05-08 04:40 -33.79559 151.33400 3011 ft 285 kts 72°
2026-05-08 04:40 -33.79275 151.34920 3017 ft 280 kts 91°
2026-05-08 04:40 -33.79885 151.37788 3014 ft 264 kts 130°
2026-05-08 04:40 -33.81163 151.39286 2928 ft 255 kts 150°
2026-05-08 04:41 -33.82135 151.40077 2845 ft 253 kts 155°
2026-05-08 04:41 -33.83736 151.40829 2714 ft 244 kts 174°
2026-05-08 04:41 -33.85351 151.40859 2595 ft 222 kts 199°
2026-05-08 04:41 -33.86606 151.40042 2487 ft 197 kts 220°
2026-05-08 04:42 -33.87615 151.39024 2360 ft 183 kts 223°
2026-05-08 04:42 -33.88565 151.38034 2239 ft 176 kts 223°
2026-05-08 04:42 -33.89541 151.36650 2119 ft 154 kts 244°
2026-05-08 04:42 -33.89842 151.35477 2064 ft 140 kts 251°
2026-05-08 04:43 -33.90108 151.34368 2032 ft 138 kts 252°
2026-05-08 04:43 -33.90281 151.33642 2031 ft 135 kts 252°
2026-05-08 04:43 -33.90628 151.32185 2032 ft 134 kts 253°
2026-05-08 04:43 -33.90797 151.31475 2021 ft 134 kts 253°
2026-05-08 04:44 -33.91054 151.30395 1936 ft 133 kts 252°
2026-05-08 04:44 -33.91311 151.29311 1794 ft 136 kts 253°
2026-05-08 04:44 -33.91649 151.27885 1565 ft 133 kts 253°
2026-05-08 04:44 -33.91902 151.26817 1405 ft 132 kts 251°
2026-05-08 04:45 -33.92153 151.25757 1231 ft 132 kts 253°
2026-05-08 04:45 -33.92406 151.24688 1062 ft 133 kts 253°
2026-05-08 04:45 -33.92573 151.23984 944 ft 132 kts 253°
2026-05-08 04:45 -33.92828 151.22909 749 ft 133 kts 251°
2026-05-08 04:46 -33.93080 151.21844 575 ft 131 kts 253°
2026-05-08 04:46 -33.93328 151.20781 422 ft 132 kts 255°
2026-05-08 04:46 -33.93582 151.19708 206 ft 133 kts 255°
2026-05-08 04:46 -33.93835 151.18643 47 ft 131 kts 255°
2026-05-08 04:47 -33.94113 151.17477 27 ft 82 kts 254°
2026-05-08 04:47 -33.94191 151.17120 29 ft 48 kts 255°
2026-05-08 04:47 -33.94235 151.16921 29 ft 12 kts 268°
2026-05-08 04:47 -33.94161 151.16868 29 ft 16 kts 26°
2026-05-08 04:48 -33.94118 151.16990 29 ft 17 kts 77°
2026-05-08 04:48 -33.94085 151.17137 29 ft 19 kts 73°
2026-05-08 04:48 -33.94024 151.17233 29 ft 16 kts 16°
2026-05-08 04:48 -33.93948 151.17319 28 ft 18 kts 73°
2026-05-08 04:49 -33.93914 151.17473 27 ft 20 kts 75°
2026-05-08 04:49 -33.93847 151.17592 29 ft 17 kts
2026-05-08 04:49 -33.93724 151.17564 29 ft 19 kts 347°
2026-05-08 04:49 -33.93593 151.17529 29 ft 20 kts 347°
2026-05-08 04:50 -33.93498 151.17506 29 ft 11 kts 359°
2026-05-08 04:50 -33.93454 151.17569 30 ft 11 kts 73°
2026-05-08 04:50 -33.93457 151.17662 30 ft 7 kts 99°
2026-05-08 04:50 -33.93461 151.17694 30 ft 2 kts 99°
2026-05-08 04:51 -33.93462 151.17700 30 ft 0 kts 100°